Temperature
21 21 21 21 24 24 23 22 23 22 22 21 21 21 21 21 21 20 17 17 17 17 17 17 17 17 17 17 17 17 17 17 17 17 17 17 18 18 18 17 17 17 17 17 17 18 18 18 18
21 21 21 23 25 23 22 22 22 22 21 21 21 21 21 20 19 18 17 17 17 17 17 17 17 17 17 17 17 17 17 17 17 17 17 17 17 17 17 17 17 17 17 17 17 17 17 17 17
21 21 22 24 24 23 22 22 22 22 21 21 21 20 20 19 18 17 17 17 17 17 17 17 17 17 17 17 17 17 17 17 17 17 17 17 17 17 17 17 17 17 17 17 17 17 17 17 17
21 21 23 24 22 22 22 22 22 22 21 21 21 21 19 17 17 17 17 17 17 16 16 17 17 17 17 17 17 17 17 17 17 17 17 17 17 17 17 17 17 17 17 17 17 17 17 17 17
21 23 24 23 22 22 23 22 22 22 22 21 21 21 19 17 17 17 17 17 17 16 16 17 17 17 17 17 17 17 17 17 17 17 17 17 17 17 17 17 17 17 17 17 17 17 17 17 17
22 24 24 22 22 22 22 22 22 22 21 21 21 20 19 17 17 17 17 16 16 16 16 16 17 17 17 17 17 17 17 17 17 17 17 17 17 17 16 16 16 16 17 16 16 16 16 16 17
23 24 23 23 22 22 22 22 22 22 21 21 20 20 19 17 17 17 16 16 16 16 16 16 16 17 17 17 17 17 17 17 17 17 17 17 16 16 16 16 16 16 16 16 16 16 16 16 16
22 24 23 23 22 22 22 21 21 21 21 19 20 20 19 17 16 16 16 16 16 16 16 16 16 16 16 16 17 17 17 17 17 17 17 16 16 16 16 16 16 16 16 16 16 16 16 16 16
22 24 23 23 22 22 22 22 21 20 20 19 19 19 18 17 16 16 16 16 16 16 16 16 16 16 16 16 16 16 17 16 16 16 16 16 16 16 16 16 16 16 16 16 16 16 16 16 16
23 23 23 23 23 23 22 22 21 21 20 20 18 17 17 16 17 17 17 17 16 16 16 16 16 16 16 16 16 16 16 16 16 16 16 16 16 16 16 16 16 16 16 16 16 16 16 15 15
23 23 23 22 22 22 22 21 21 21 21 20 19 18 17 17 17 17 17 16 16 16 16 16 16 16 16 16 16 16 16 16 15 15 15 15 15 15 15 15 15 15 15 15 15 15 15 15 15
23 22 22 22 21 21 22 21 21 20 20 19 18 18 17 17 17 17 17 16 16 16 16 16 16 16 16 15 15 15 15 15 15 15 15 15 15 15 15 15 15 15 15 15 15 15 15 15 15
23 22 21 21 21 21 21 21 20 20 18 18 18 17 17 17 17 17 16 16 16 16 15 16 15 16 15 15 15 15 15 15 15 15 15 15 15 15 15 15 15 15 15 15 15 15 15 15 15
22 22 21 21 21 21 21 20 20 19 18 18 17 17 17 17 17 17 16 16 16 16 16 15 15 15 15 15 15 15 15 15 15 15 15 15 15 15 15 15 15 14 14 14 14 14 14 14 14
21 22 22 21 21 21 21 21 21 19 18 18 18 17 17 17 16 16 16 16 16 16 15 15 15 15 15 15 15 15 15 15 15 14 14 14 14 14 14 14 14 14 14 14 14 14 14 14 14
23 23 22 22 21 21 22 21 21 19 18 18 18 17 17 16 16 16 16 16 16 16 15 15 15 15 15 15 15 15 15 15 14 14 14 14 14 14 14 14 14 14 14 14 14 14 14 14 14
22 22 22 22 22 21 22 21 21 19 19 19 18 18 17 17 16 16 16 16 16 15 15 15 15 15 15 15 15 15 14 14 14 14 14 14 14 14 14 14 14 14 14 14 14 14 14 14 14
22 22 22 22 22 22 21 21 21 19 19 19 19 18 18 17 17 16 16 16 15 15 15 15 15 15 15 15 14 14 14 14 14 14 14 14 14 14 14 14 14 14 14 14 13 13 13 13 13
23 22 22 22 22 21 21 21 21 20 19 19 19 19 18 18 17 16 16 16 15 15 15 15 15 14 15 14 14 14 14 14 14 14 14 14 14 14 14 14 14 14 13 13 13 13 13 13 13
22 22 22 22 21 21 21 21 21 21 20 19 19 19 18 18 17 16 16 16 15 15 15 15 15 14 14 14 14 14 14 14 14 14 14 14 14 14 14 13 13 13 13 13 13 13 13 13 13
22 22 22 22 21 21 21 21 22 21 20 19 19 18 18 18 17 17 16 16 15 15 15 15 15 14 14 14 14 14 14 14 14 14 14 13 13 13 13 13 13 13 13 13 13 13 13 13 12
22 22 22 21 21 21 21 22 22 22 21 20 19 18 18 17 17 16 16 15 15 15 15 15 14 14 14 14 14 14 14 13 13 13 13 13 13 13 13 13 13 13 13 13 12 12 12 12 12
22 22 21 21 21 21 22 22 23 22 21 20 20 18 17 17 16 16 16 15 15 15 15 14 14 14 14 14 14 14 13 13 13 13 13 13 13 13 13 13 13 12 12 12 12 12 12 12 12
21 21 21 21 21 21 22 22 22 22 21 21 20 19 18 17 16 16 15 15 15 15 15 14 14 14 14 14 14 13 13 13 13 13 13 13 13 13 13 12 12 12 12 12 12 12 12 12 12
21 21 21 20 20 21 22 21 22 21 21 20 20 19 18 17 16 15 15 15 15 15 15 14 14 14 14 14 13 13 13 13 13 13 13 12 12 12 12 12 12 12 12 12 12 12 11 12 12
21 21 21 20 20 21 21 21 22 20 19 19 18 18 17 17 16 15 15 15 15 15 15 14 14 14 14 13 13 13 13 13 13 13 13 12 12 12 12 12 12 12 11 11 11 11 11 11 11
21 21 22 21 21 21 22 21 21 19 19 18 17 17 16 16 16 15 15 15 14 14 14 14 14 14 13 13 13 13 13 13 13 13 12 12 12 12 12 11 11 11 11 11 11 11 11 11 11
21 21 21 20 20 20 21 21 21 19 18 18 18 17 16 15 15 15 14 14 14 14 14 14 14 13 13 13 13 13 13 13 12 12 12 12 12 12 12 11 11 11 11 11 11 11 11 11 11
19 20 20 21 20 20 20 21 20 20 19 18 17 16 16 15 15 14 14 14 14 14 13 13 13 13 13 13 13 13 13 13 12 12 12 12 12 11 11 11 11 11 11 11 11 11 11 10 11
20 20 20 20 20 20 20 20 19 19 18 17 17 16 15 14 14 14 14 13 13 13 13 13 13 13 13 12 12 12 12 12 12 12 12 12 11 11 11 11 11 11 11 10 10 10 10 10 10
Wind_Speed
3 1 2 2 2 4 6 5 4 5 4 5 6 5 6 6 5 5 3 5 5 6 7 9 11 10 10 10 9 8 9 9 9 10 10 11 11 11 12 11 11 11 11 12 12 12 12 11 11
1 1 2 1 2 5 6 5 6 6 6 6 6 6 7 7 6 5 3 4 5 6 7 10 11 11 11 10 10 9 8 9 9 10 11 11 12 12 11 12 12 12 12 12 12 12 12 12 12
1 1 1 1 3 4 6 6 7 7 5 3 4 5 5 5 5 4 4 4 5 6 8 10 10 11 12 11 12 13 11 10 10 11 11 11 12 12 12 12 13 13 13 13 13 13 12 12 12
2 1 1 4 8 6 6 7 7 7 6 4 5 6 5 5 3 4 5 4 6 6 8 10 10 11 12 13 14 15 14 14 12 12 12 12 13 13 13 13 13 13 13 13 13 12 12 12 11
1 1 5 7 7 6 6 5 4 5 5 6 6 7 6 5 6 6 6 5 6 6 8 9 10 11 12 13 14 14 14 14 14 14 14 14 13 13 13 13 13 13 13 12 12 12 12 12 12
1 2 5 7 8 6 5 5 5 6 6 5 5 6 5 5 5 6 6 6 6 7 7 9 10 11 11 12 13 13 13 14 14 14 14 14 14 14 14 13 13 13 13 12 12 12 12 12 12
2 3 6 8 8 6 5 5 4 6 6 4 3 5 5 5 4 5 6 6 6 7 7 7 8 9 10 11 12 12 13 13 14 14 14 14 15 14 13 13 13 12 12 12 12 12 12 13 13
1 4 7 6 7 6 6 5 4 3 5 4 2 3 5 5 5 5 6 6 7 7 7 7 7 8 8 9 11 12 12 12 12 13 13 12 13 13 13 13 14 13 13 13 13 13 14 14 13
2 4 6 6 6 6 7 6 4 4 6 5 4 4 6 8 7 6 6 6 6 7 6 6 6 7 7 8 9 10 10 10 9 11 11 9 10 11 11 14 13 13 13 13 13 13 13 11 12
2 4 5 4 5 7 6 5 5 5 6 5 6 7 8 8 7 6 6 6 6 6 5 5 6 6 7 7 7 6 7 8 8 8 8 8 9 9 10 12 12 12 12 12 12 10 8 6 8
3 4 5 5 5 6 6 5 4 5 3 3 7 10 9 8 7 6 5 6 6 5 5 5 5 5 6 5 5 5 5 6 7 8 8 8 8 7 8 7 7 8 8 8 8 7 8 8 7
5 5 5 5 6 5 5 5 4 3 2 4 7 10 10 8 6 5 5 5 5 5 5 4 4 5 5 5 5 5 4 5 5 6 7 6 6 6 6 6 6 6 6 7 6 6 7 8 8
6 5 5 6 6 5 6 5 4 4 4 7 9 9 8 7 6 5 5 5 5 5 4 4 4 4 5 5 4 4 5 5 6 6 6 7 5 5 6 5 6 6 6 6 6 6 7 7 7
6 7 7 5 5 4 5 4 3 4 6 8 9 8 7 7 6 5 5 4 4 4 4 4 4 4 4 4 4 4 5 5 5 5 6 7 6 5 5 5 5 6 6 6 5 6 6 6 6
8 8 6 4 4 4 4 3 4 5 7 8 8 8 7 6 5 5 4 4 4 4 4 4 4 4 5 5 5 5 4 5 5 5 5 6 6 5 5 4 5 5 5 5 5 6 5 5 5
7 6 5 4 4 3 5 3 5 7 8 8 8 8 7 6 5 4 4 3 3 3 4 5 4 4 5 4 4 4 5 5 5 5 5 6 5 5 5 4 4 5 4 4 4 4 4 4 4
7 7 6 5 5 4 5 3 5 8 9 8 8 8 7 6 6 5 4 4 3 4 4 5 5 4 5 4 4 5 5 4 4 4 4 5 5 5 4 4 4 4 3 3 3 3 3 4 4
7 7 6 5 5 6 6 5 5 8 9 8 8 7 7 7 6 5 5 4 4 4 4 5 5 4 5 3 3 4 4 3 4 4 4 5 5 5 4 3 4 4 3 3 3 3 3 3 3
6 6 5 3 4 6 6 6 5 7 8 8 8 8 8 7 6 6 5 5 5 4 4 5 5 4 4 3 2 2 2 2 3 3 4 4 4 4 5 3 3 3 3 3 3 3 3 3 2
8 7 5 3 3 5 5 6 5 7 8 8 8 8 8 7 7 7 6 6 5 5 5 5 4 4 4 2 2 2 2 2 3 3 3 3 3 4 3 3 3 3 2 2 3 2 1 2 2
8 8 6 4 3 5 5 6 7 6 7 6 6 7 8 8 8 8 7 7 6 5 5 5 5 5 4 3 2 2 2 2 2 2 2 2 2 3 3 3 3 2 2 1 1 1 1 1 2
7 5 5 6 6 4 6 5 5 7 7 7 7 7 7 7 7 7 7 7 7 6 5 5 5 5 4 4 3 2 2 1 1 1 1 1 2 2 2 2 2 2 2 1 1 1 1 1 1
5 5 5 6 7 6 6 6 4 5 6 7 7 7 7 7 7 7 7 7 7 6 6 5 5 5 4 3 3 2 1 1 1 0 1 1 1 1 1 1 1 1 1 1 1 1 2 2 2
6 6 4 5 6 8 8 8 4 4 5 4 5 6 6 7 7 6 7 6 6 6 5 5 5 5 4 3 3 3 2 1 1 0 0 0 0 1 1 1 1 1 1 1 1 2 2 2 2
7 6 4 5 6 6 4 7 4 1 1 3 5 5 5 6 7 6 7 7 6 6 6 5 6 5 4 4 4 3 2 2 2 1 1 1 1 1 1 1 1 1 1 2 2 2 2 2 2
8 9 6 4 5 3 5 6 2 2 0 1 3 4 4 5 6 6 7 7 7 6 6 6 6 5 4 4 4 3 3 2 1 2 1 1 1 1 1 2 1 1 1 2 1 2 2 2 2
6 8 5 5 5 6 5 4 3 1 1 1 2 3 3 3 5 6 6 7 6 6 6 6 6 5 5 4 4 3 3 3 2 2 1 1 1 1 1 2 2 2 1 2 2 2 2 3 3
4 5 5 5 4 6 5 6 3 3 3 2 2 2 3 3 4 5 5 6 6 6 6 6 6 5 5 4 3 2 3 2 2 2 2 2 2 1 2 2 2 2 2 2 2 2 2 3 2
5 6 5 5 5 5 5 2 2 0 2 4 3 2 2 2 3 4 4 5 5 5 5 5 5 5 4 4 3 3 2 2 2 2 2 2 2 2 2 2 2 2 2 2 2 2 2 2 2
5 7 8 7 7 7 6 2 4 2 1 2 2 2 2 2 2 3 3 4 4 4 4 4 5 5 4 4 3 3 2 2 2 2 2 2 2 2 2 2 2 2 2 3 2 2 2 2 2
Wind_Direction
172 176 225 237 176 100 87 86 89 97 79 67 63 68 70 55 41 72 59 35 30 36 35 40 48 58 60 57 54 58 65 67 67 69 72 78 82 85 84 84 83 82 79 76 76 77 76 78 80
142 201 234 244 148 117 98 98 95 84 94 98 83 76 75 69 60 83 76 46 42 44 44 47 47 53 55 55 51 52 64 71 68 71 73 77 79 81 81 82 81 80 79 77 77 78 76 76 76
144 264 327 98 96 97 109 105 102 97 97 89 85 67 64 73 71 77 73 64 55 50 50 53 45 54 55 53 53 56 66 76 75 72 73 75 78 78 79 81 80 79 79 79 78 76 75 75 74
212 192 118 101 97 84 103 114 112 111 97 82 98 91 85 60 59 82 93 77 65 57 57 62 56 58 57 57 57 59 68 73 72 71 71 71 76 79 79 79 77 77 77 76 76 75 75 75 74
217 154 123 111 101 97 106 115 115 106 99 95 100 101 92 67 75 92 92 79 69 66 63 70 65 62 60 59 59 61 66 69 71 72 71 71 75 80 78 77 76 76 76 76 77 76 74 74 74
156 155 134 123 116 112 117 126 117 105 102 106 111 111 95 87 90 89 89 78 70 69 70 77 76 65 63 62 61 64 68 69 70 71 71 72 73 74 74 75 74 73 75 76 77 74 73 73 72
134 125 122 125 127 126 123 118 110 111 107 99 113 115 119 108 93 96 90 80 72 70 70 71 76 77 73 66 65 67 68 70 72 73 71 72 72 73 72 72 73 72 72 73 74 73 70 70 69
110 135 132 134 137 126 129 124 106 106 102 100 115 121 130 128 123 111 96 89 80 72 69 71 70 70 74 78 73 69 69 71 74 75 73 74 76 75 72 73 71 70 70 70 70 72 71 70 68
176 152 142 141 142 130 138 134 116 104 111 104 91 85 108 126 131 118 104 92 83 74 69 68 68 66 67 72 77 76 75 73 82 82 79 75 73 72 73 67 68 69 69 70 70 72 71 72 75
165 145 130 126 133 131 136 132 138 141 128 120 115 106 115 129 131 122 109 95 86 81 75 71 68 68 68 69 75 69 68 70 70 72 73 71 70 69 71 72 68 69 70 74 72 74 75 66 69
134 132 127 128 129 135 135 128 139 148 135 134 141 138 135 133 129 117 105 97 89 86 78 70 70 71 71 72 71 70 67 68 66 64 70 72 73 76 71 69 71 68 66 67 71 72 64 63 61
128 115 132 136 139 142 139 137 130 121 96 112 130 140 139 137 129 119 111 100 96 86 80 74 71 76 74 76 75 74 75 70 68 62 62 66 68 66 65 64 59 59 62 61 62 65 65 64 64
137 131 122 129 131 133 129 133 130 119 114 123 129 136 138 136 132 123 113 107 99 92 87 78 78 77 79 78 76 77 74 72 75 68 64 66 68 67 67 66 62 60 63 66 65 67 63 60 58
135 137 135 137 140 147 141 141 155 141 140 141 143 145 146 141 136 127 122 114 104 97 90 85 81 78 80 85 83 75 72 75 77 70 63 64 64 64 64 68 65 63 60 62 67 68 65 62 60
143 143 145 151 155 156 161 166 175 156 157 156 156 151 150 150 146 140 132 124 113 104 100 96 95 89 85 80 76 74 71 69 71 67 62 62 60 60 66 63 66 66 65 67 67 68 64 63 62
165 180 182 170 175 187 211 196 158 165 170 171 168 162 162 163 163 155 143 137 123 118 108 105 105 101 91 84 81 77 74 73 72 67 59 61 63 61 65 62 63 63 63 65 68 63 64 60 53
191 196 195 182 182 188 211 208 164 175 184 183 180 176 174 173 173 166 155 150 141 133 121 116 112 108 99 93 90 82 79 74 70 68 59 55 59 61 71 67 65 66 64 62 63 59 55 58 53
191 198 203 201 177 194 209 221 186 183 196 195 190 187 185 183 181 176 166 160 152 143 131 125 121 116 107 102 99 92 81 75 68 64 61 59 62 60 63 69 64 60 61 61 63 65 58 54 49
208 210 209 203 182 202 220 231 222 195 203 206 201 197 195 192 182 176 173 165 160 153 145 136 132 127 122 116 111 101 94 84 73 64 60 64 66 65 66 61 67 59 58 58 66 66 68 57 41
207 210 208 187 182 212 228 242 231 212 212 214 213 206 202 196 187 180 178 173 172 164 159 153 148 142 137 128 120 115 108 95 74 70 64 60 68 68 67 63 60 65 66 61 64 65 46 45 12
217 223 218 214 195 208 233 234 218 209 212 212 217 216 207 202 197 186 184 181 178 177 174 169 164 157 152 141 126 121 116 117 102 87 68 53 55 65 65 60 61 60 62 62 43 39 23 9 13
223 218 217 213 220 226 227 250 215 199 202 211 212 205 205 201 198 191 185 184 184 185 184 178 171 165 157 152 155 158 157 142 100 84 75 63 53 51 52 51 56 60 39 32 10 20 1 341 346
223 186 198 217 238 248 229 249 226 189 218 222 213 205 201 200 198 195 190 189 187 181 183 183 175 169 165 165 161 180 166 142 122 114 80 48 52 34 23 21 44 22 4 0 360 354 334 330 330
174 172 182 214 236 244 231 235 246 206 228 218 207 205 199 194 192 194 190 185 181 173 175 180 179 175 175 179 179 188 177 172 170 197 252 265 115 1 10 354 342 329 330 326 325 328 314 319 324
201 207 216 217 220 238 202 230 246 99 242 233 214 204 195 189 186 185 183 181 178 173 172 177 178 181 181 187 192 198 197 203 207 220 241 267 265 280 307 311 308 312 315 318 309 304 308 304 305
216 223 234 246 241 243 203 227 200 83 36 233 196 190 183 183 183 182 183 181 179 177 178 178 180 184 187 198 204 207 204 217 229 243 250 260 281 288 294 298 304 308 310 306 311 302 311 311 300
212 220 239 263 267 262 223 219 212 137 162 132 149 162 176 182 182 182 180 179 179 180 183 182 182 185 191 205 211 212 214 224 240 252 253 258 272 292 288 285 291 291 296 298 295 295 304 311 308
245 204 204 228 242 251 238 233 239 206 220 201 190 194 191 183 174 175 177 178 179 181 183 181 184 187 189 197 207 216 219 224 236 241 248 259 274 282 273 267 274 278 281 283 285 295 308 306 315
189 196 219 232 248 259 258 229 55 216 206 210 208 197 186 179 173 169 172 174 174 174 176 178 183 186 185 191 197 199 207 214 220 232 248 258 271 273 267 259 261 267 269 268 265 278 292 302 311
234 226 221 234 238 244 263 265 90 84 110 199 196 174 152 147 149 154 159 164 170 171 173 178 185 187 188 191 195 198 199 205 214 229 242 252 266 270 266 263 263 271 278 277 275 278 287 293 303
Height
1505 1505 1505 1506 1505 1507 1515 1516 1514 1516 1517 1520 1520 1519 1519 1521 1523 1529 1529 1525 1524 1523 1520 1515 1510 1509 1511 1512 1512 1512 1512 1512 1513 1513 1513 1514 1514 1514 1514 1514 1514 1514 1514 1515 1515 1515 1515 1515 1515
1506 1505 1507 1507 1504 1513 1519 1516 1517 1518 1520 1522 1522 1522 1522 1525 1527 1528 1528 1526 1526 1525 1523 1520 1516 1515 1515 1514 1512 1509 1509 1511 1513 1515 1515 1515 1516 1516 1516 1516 1516 1516 1516 1516 1517 1517 1517 1517 1517
1506 1506 1509 1505 1508 1513 1519 1517 1518 1521 1522 1522 1523 1524 1525 1528 1529 1529 1529 1528 1527 1526 1525 1523 1521 1519 1518 1516 1513 1507 1506 1510 1514 1516 1517 1517 1517 1517 1517 1518 1518 1518 1518 1518 1518 1518 1518 1518 1518
1508 1509 1509 1508 1515 1516 1516 1518 1520 1521 1523 1524 1524 1526 1529 1531 1531 1531 1530 1530 1529 1528 1527 1525 1524 1522 1521 1519 1517 1513 1511 1514 1517 1518 1519 1519 1519 1519 1519 1519 1519 1520 1520 1520 1520 1520 1520 1520 1520
1509 1509 1508 1514 1517 1518 1518 1520 1521 1521 1523 1525 1525 1527 1530 1532 1532 1532 1531 1531 1531 1530 1529 1527 1526 1525 1524 1523 1521 1520 1519 1519 1520 1521 1521 1521 1521 1521 1521 1521 1521 1521 1521 1521 1522 1521 1521 1521 1521
1510 1507 1511 1517 1519 1519 1520 1522 1522 1522 1524 1526 1527 1529 1532 1534 1533 1533 1533 1533 1532 1531 1531 1530 1528 1527 1527 1526 1525 1524 1524 1523 1523 1524 1524 1523 1523 1523 1523 1523 1523 1523 1523 1523 1523 1523 1523 1523 1523
1510 1508 1512 1516 1520 1520 1521 1523 1523 1524 1525 1528 1529 1530 1533 1535 1534 1534 1534 1534 1534 1533 1532 1532 1531 1530 1529 1529 1528 1527 1527 1527 1526 1526 1526 1526 1525 1525 1525 1525 1525 1525 1525 1524 1524 1524 1524 1524 1524
1511 1511 1514 1516 1519 1521 1522 1524 1525 1525 1527 1530 1530 1530 1533 1536 1535 1535 1535 1535 1535 1535 1534 1534 1533 1533 1532 1531 1530 1530 1530 1529 1529 1529 1528 1528 1528 1528 1527 1527 1527 1527 1526 1526 1526 1525 1525 1525 1525
1512 1512 1516 1517 1518 1520 1522 1524 1526 1528 1529 1530 1531 1532 1534 1535 1536 1536 1537 1537 1537 1536 1536 1536 1535 1535 1534 1534 1533 1532 1532 1532 1531 1531 1531 1531 1531 1531 1530 1529 1529 1528 1528 1527 1527 1527 1527 1527 1527
1512 1512 1515 1516 1516 1519 1523 1524 1526 1528 1529 1531 1533 1534 1535 1536 1537 1537 1538 1538 1538 1538 1538 1537 1537 1536 1536 1535 1535 1535 1535 1534 1534 1534 1533 1533 1533 1532 1532 1531 1530 1530 1529 1529 1529 1529 1529 1529 1529
1512 1513 1516 1518 1520 1521 1523 1525 1527 1527 1528 1530 1532 1534 1536 1537 1538 1538 1539 1539 1539 1539 1539 1539 1538 1538 1538 1537 1537 1537 1536 1536 1536 1536 1535 1535 1535 1534 1534 1533 1532 1532 1531 1531 1531 1531 1531 1531 1531
1514 1516 1518 1520 1522 1523 1524 1526 1527 1529 1531 1532 1533 1535 1536 1537 1538 1539 1540 1540 1540 1540 1540 1540 1540 1540 1539 1539 1538 1538 1538 1538 1538 1537 1537 1537 1536 1536 1536 1535 1534 1534 1533 1533 1533 1533 1533 1533 1533
1515 1518 1520 1522 1523 1524 1526 1527 1528 1531 1532 1533 1534 1536 1537 1538 1539 1540 1541 1541 1541 1541 1541 1541 1541 1541 1541 1540 1540 1540 1540 1540 1540 1539 1539 1539 1538 1538 1538 1537 1536 1536 1535 1535 1534 1535 1534 1534 1534
1517 1519 1521 1523 1524 1525 1526 1528 1529 1531 1533 1534 1535 1536 1537 1539 1539 1540 1541 1541 1542 1542 1542 1542 1542 1542 1542 1542 1542 1542 1541 1541 1541 1541 1541 1541 1540 1540 1539 1539 1538 1537 1537 1537 1537 1536 1536 1536 1535
1518 1519 1521 1523 1524 1525 1526 1527 1528 1531 1533 1534 1535 1537 1538 1539 1540 1541 1541 1542 1542 1542 1542 1542 1542 1543 1543 1543 1543 1542 1542 1542 1542 1542 1542 1542 1541 1541 1541 1540 1540 1539 1539 1538 1538 1538 1537 1537 1537
1516 1517 1520 1522 1523 1525 1527 1527 1527 1531 1532 1533 1535 1537 1538 1539 1540 1541 1542 1542 1543 1543 1543 1543 1543 1543 1543 1544 1544 1543 1543 1543 1543 1543 1543 1543 1543 1542 1542 1541 1541 1540 1540 1540 1539 1539 1538 1538 1538
1514 1517 1519 1521 1522 1523 1524 1524 1527 1530 1531 1533 1534 1536 1537 1539 1540 1541 1541 1542 1543 1543 1543 1543 1543 1544 1544 1544 1544 1544 1544 1544 1544 1544 1544 1544 1544 1543 1543 1542 1542 1542 1541 1541 1540 1540 1540 1539 1538
1516 1515 1517 1519 1520 1521 1522 1522 1525 1528 1530 1531 1533 1534 1536 1538 1539 1540 1541 1542 1543 1543 1544 1544 1544 1544 1544 1545 1545 1545 1545 1545 1545 1545 1545 1545 1544 1544 1544 1543 1543 1542 1542 1542 1541 1540 1540 1539 1539
1511 1514 1516 1516 1518 1521 1521 1522 1523 1526 1528 1529 1531 1532 1534 1536 1538 1539 1540 1541 1542 1543 1544 1544 1544 1545 1545 1545 1546 1546 1546 1546 1546 1545 1545 1545 1545 1545 1544 1544 1544 1543 1543 1542 1542 1541 1541 1540 1539
1512 1515 1516 1517 1518 1519 1519 1519 1520 1523 1525 1527 1528 1530 1532 1534 1536 1537 1539 1540 1541 1542 1543 1544 1544 1545 1545 1545 1546 1546 1546 1546 1546 1546 1545 1545 1545 1545 1545 1545 1544 1544 1543 1542 1542 1541 1541 1541 1540
1511 1512 1514 1517 1519 1519 1519 1519 1517 1519 1522 1525 1526 1528 1529 1532 1533 1535 1537 1538 1539 1541 1542 1543 1544 1544 1545 1545 1546 1546 1546 1546 1546 1546 1545 1545 1545 1545 1545 1545 1545 1544 1544 1543 1542 1542 1541 1541 1541
1511 1510 1513 1516 1519 1518 1518 1519 1512 1513 1518 1521 1524 1526 1527 1529 1531 1533 1534 1536 1537 1539 1540 1542 1543 1544 1545 1545 1546 1546 1546 1547 1547 1546 1546 1546 1545 1545 1545 1544 1544 1544 1543 1543 1542 1542 1541 1541 1541
1509 1511 1513 1515 1516 1517 1516 1517 1509 1511 1515 1517 1520 1523 1525 1527 1529 1530 1532 1533 1536 1537 1538 1540 1542 1543 1544 1545 1545 1546 1546 1546 1546 1546 1546 1545 1545 1544 1544 1544 1543 1543 1543 1542 1541 1541 1540 1540 1540
1510 1511 1514 1513 1514 1521 1513 1516 1511 1508 1510 1513 1517 1520 1522 1524 1526 1528 1530 1532 1534 1535 1536 1538 1540 1541 1543 1543 1544 1545 1545 1545 1545 1545 1545 1545 1544 1544 1544 1543 1543 1542 1542 1541 1540 1540 1539 1539 1539
1509 1512 1519 1520 1520 1516 1509 1513 1510 1507 1510 1512 1515 1518 1520 1522 1524 1526 1528 1529 1531 1533 1534 1536 1538 1540 1541 1542 1543 1544 1545 1545 1545 1545 1544 1544 1544 1543 1543 1542 1542 1541 1540 1540 1539 1539 1538 1538 1537
1506 1508 1517 1523 1519 1511 1510 1510 1506 1509 1512 1513 1515 1517 1518 1520 1522 1523 1525 1527 1529 1531 1533 1534 1536 1538 1539 1541 1542 1543 1543 1543 1544 1544 1543 1543 1543 1542 1542 1541 1540 1540 1539 1539 1538 1537 1537 1537 1536
1506 1506 1504 1511 1512 1514 1506 1504 1505 1508 1510 1513 1514 1516 1517 1518 1520 1522 1523 1525 1527 1529 1531 1532 1534 1536 1538 1539 1540 1541 1541 1542 1542 1542 1542 1542 1541 1541 1540 1540 1539 1539 1538 1537 1537 1536 1536 1535 1534
1506 1504 1508 1511 1517 1516 1508 1505 1504 1506 1509 1511 1513 1515 1516 1517 1519 1520 1522 1523 1525 1527 1529 1531 1533 1534 1536 1537 1538 1539 1539 1539 1540 1540 1540 1540 1540 1539 1538 1538 1538 1537 1537 1536 1535 1535 1534 1533 1532
1507 1508 1506 1506 1508 1512 1511 1506 1502 1504 1507 1510 1512 1514 1516 1516 1518 1519 1520 1522 1524 1526 1528 1529 1531 1533 1534 1535 1536 1536 1537 1537 1538 1538 1538 1538 1538 1537 1537 1536 1536 1536 1535 1534 1534 1533 1533 1532 1531
1505 1503 1505 1510 1508 1506 1507 1509 1505 1506 1508 1510 1512 1514 1515 1516 1517 1518 1519 1521 1522 1524 1526 1527 1529 1530 1531 1533 1534 1535 1535 1535 1536 1536 1536 1536 1536 1535 1535 1535 1534 1534 1533 1533 1532 1531 1531 1530 1529